User: anonymous   Login
Location: Wanzleben
(52.0609°N, 11.4408°E)
Time: 00:22:20
(UTC+00:00)
Language:

COSMOS 2406 - Orbit

View from above orbital plane
View from above orbital plane
View from above satellite
View from above satellite

Ground track
Ground track

The orbit data is extracted from the following two-line orbital elements,

1 28352U 04021A   21136.13510740  .00000252  00000-0  16397-3 0  9999
2 28352  71.0034  20.8209 0011996 100.6851 259.5622 14.11685276872464
Epoch (UTC): 16 May 2021 03:14:33
Eccentricity: 0.0011996
inclination: 71.0034°
perigee height: 845 km
apogee height: 862 km
right ascension of ascending node: 20.8209°
argument of perigee: 100.6851°
revolutions per day: 14.11685276
mean anomaly at epoch: 259.5622°
orbit number at epoch: 87246

The dashed part of the orbit path shows where the satellite is in the earth's shadow,  

DLR